RH
23 21 20 19 18 17 17 18 20 22 23 25 27 30 32 32 30 27 23 21 21 20 20 19 18 19 21 22 21 21 21 21 21 22 23 24 27 29 32 36 39 42 44 46 49 53 52 48 47 45 44 46 48 51 51 50 55 62 66 70 69 60
22 23 22 21 19 17 16 17 20 23 24 26 28 31 34 35 33 31 26 22 20 20 20 19 19 18 19 21 21 21 21 21 21 22 23 24 26 28 33 36 41 45 48 51 53 54 50 47 45 44 46 49 52 53 52 53 61 68 71 72 63 55
18 22 23 23 21 18 17 17 20 23 25 25 29 32 34 35 34 33 30 25 21 20 20 19 19 18 18 20 21 21 21 22 21 22 23 24 25 28 32 36 42 48 52 53 53 53 49 49 47 49 52 55 59 55 56 61 68 74 74 72 61 55
14 19 23 25 23 20 18 18 20 22 25 26 29 31 31 32 33 35 34 29 23 20 20 20 19 18 18 19 20 21 21 21 21 22 22 24 24 27 33 38 46 52 57 57 54 51 49 52 55 60 61 61 63 59 63 65 66 73 68 64 59 55
12 15 22 27 26 22 19 19 20 22 25 26 27 27 28 30 31 34 35 34 27 20 20 19 19 18 18 18 19 20 21 21 22 22 22 23 23 26 33 42 51 56 60 59 55 52 55 61 63 66 66 63 62 62 65 59 56 62 56 54 56 56
12 13 20 28 28 25 21 20 21 22 24 25 26 25 27 29 30 33 36 36 29 22 19 19 19 19 18 18 18 20 21 22 22 22 22 23 24 26 33 46 55 58 61 62 60 60 64 68 66 67 68 64 63 62 57 51 51 52 48 50 52 55
12 12 19 29 31 27 22 21 21 21 23 25 26 27 28 29 31 35 38 39 34 25 20 19 19 19 19 18 18 19 20 23 23 22 22 24 27 31 39 49 57 59 63 66 66 68 68 66 66 66 63 59 58 54 46 45 49 46 45 50 50 52
12 12 18 27 32 29 24 22 21 21 24 26 28 29 30 30 30 35 37 39 39 32 22 19 19 18 19 18 18 18 19 22 23 23 24 25 31 38 45 50 54 58 63 64 62 65 64 61 62 58 53 51 48 44 40 41 43 42 45 52 51 50
11 12 17 25 31 30 26 23 21 22 25 28 29 29 30 29 28 32 33 33 38 38 27 19 19 18 18 18 18 17 18 21 22 23 24 25 31 38 43 47 53 58 63 65 61 61 57 53 54 47 41 41 40 40 37 38 42 44 49 53 50 47
11 12 15 22 30 31 27 24 22 23 27 29 28 28 28 26 26 32 35 35 39 42 33 21 18 18 18 18 17 17 17 19 21 23 24 24 28 35 41 48 57 61 62 63 60 57 52 52 53 42 37 39 42 43 37 38 43 45 50 50 46 47
11 12 14 20 29 31 28 26 23 23 28 29 26 25 25 23 27 36 41 44 46 46 38 25 20 18 18 18 17 17 17 18 20 22 23 24 28 37 44 49 55 57 57 57 55 53 52 55 53 44 43 42 42 42 36 37 41 43 47 44 42 47
11 13 17 22 28 31 30 27 23 24 28 28 25 23 21 21 28 37 44 49 49 48 43 31 23 20 18 18 18 17 17 17 19 21 22 24 30 39 44 44 47 52 54 55 55 54 54 56 54 48 46 43 41 38 34 37 40 43 44 39 40 46
10 12 18 25 30 32 31 28 24 25 28 28 24 20 18 20 27 37 44 47 48 50 49 38 27 21 18 18 18 17 17 17 18 20 22 27 34 41 43 43 48 55 57 58 60 56 55 56 56 52 47 47 43 36 37 39 41 44 42 37 38 41
10 10 14 23 31 34 32 28 25 25 28 28 22 17 16 20 27 37 45 47 48 50 54 48 33 21 18 18 18 18 17 17 18 19 23 29 36 41 44 47 54 60 61 62 62 56 56 59 58 54 49 47 43 38 41 40 38 43 39 34 37 39
10 10 10 16 27 35 35 30 27 26 29 26 17 13 15 20 28 39 46 49 51 51 57 57 41 25 19 18 18 18 18 17 18 18 24 30 36 43 47 49 56 60 63 66 62 57 60 61 59 56 48 45 43 40 40 35 34 38 35 33 37 39
10 10 9 11 21 33 36 33 28 28 30 22 13 11 14 18 28 40 48 52 54 54 58 60 50 32 21 19 18 18 18 17 19 18 24 31 36 46 49 49 55 60 65 67 61 60 65 64 61 55 47 43 40 38 35 29 29 32 31 34 40 41
11 10 8 9 16 27 37 35 29 30 28 17 10 12 13 16 28 41 50 54 55 55 57 60 57 42 27 21 18 18 18 17 19 20 26 32 38 48 50 49 55 61 66 65 61 64 67 62 55 49 44 40 35 33 29 22 26 30 28 34 41 41
12 11 8 9 12 27 41 37 31 31 23 12 11 13 12 15 27 42 51 54 54 53 54 57 60 51 33 22 18 18 18 17 19 22 25 30 40 50 50 49 55 63 69 65 61 63 62 56 49 45 42 36 32 30 22 17 25 31 30 36 40 37
14 11 7 7 10 30 45 38 33 29 16 11 13 14 13 16 26 41 51 52 49 47 49 55 61 57 40 26 21 19 20 20 20 23 25 29 44 54 50 50 56 65 70 66 63 62 60 57 51 47 42 32 27 24 18 17 23 28 30 35 37 34
16 12 8 6 10 33 47 39 33 24 13 13 14 14 14 16 25 40 49 48 44 43 48 56 63 60 47 34 28 28 32 29 23 25 26 29 45 55 52 50 54 63 68 67 69 65 62 62 55 52 44 30 26 23 17 18 22 25 27 29 32 32
18 14 8 5 12 37 49 40 31 19 12 14 14 14 15 16 25 39 47 46 43 45 51 58 64 61 51 41 37 42 50 47 37 32 28 29 44 55 54 51 55 63 67 68 72 67 67 67 57 54 44 27 28 28 20 18 19 24 27 26 26 26
20 17 8 5 17 41 50 39 27 17 14 15 14 14 14 17 27 39 45 44 45 49 55 60 64 61 52 48 47 51 59 60 52 44 36 34 46 56 55 53 57 64 67 69 70 68 70 66 55 54 42 25 30 33 26 22 20 28 33 29 27 29
22 18 8 5 18 42 51 37 21 16 16 14 14 14 13 18 29 38 42 43 46 52 57 60 64 60 52 53 58 60 64 64 58 51 46 43 48 56 55 54 59 65 67 66 67 68 70 63 53 53 41 25 29 32 30 29 28 35 40 38 40 42
24 18 7 7 20 43 51 34 19 16 14 12 13 12 12 20 29 35 38 42 49 53 56 60 62 60 52 54 62 68 69 67 61 57 55 53 53 55 55 57 63 67 65 63 66 68 65 58 55 56 41 24 24 24 28 39 43 43 43 47 51 43
25 14 7 11 24 46 50 30 16 14 12 11 11 10 13 21 28 32 35 42 49 51 54 59 60 59 54 53 62 70 72 69 65 61 59 57 56 56 57 58 62 67 65 63 67 65 57 54 58 59 46 24 17 19 27 41 47 46 46 48 42 30
24 11 9 16 29 51 50 24 13 13 12 11 11 11 13 19 27 33 37 41 45 48 52 57 58 58 55 54 64 73 73 71 69 63 60 59 58 60 61 60 64 68 67 68 70 62 51 51 54 55 50 31 17 19 28 33 34 36 39 34 25 20
22 10 15 22 34 56 47 19 12 14 12 11 11 12 15 22 32 35 37 39 43 47 51 54 56 57 56 55 65 74 73 73 73 67 64 63 61 62 62 62 68 70 70 72 70 56 46 48 46 44 46 36 20 18 23 23 22 24 25 22 19 20
20 12 21 31 43 58 42 16 13 13 12 12 12 13 19 27 33 33 34 38 43 49 53 55 56 57 56 54 59 67 69 70 74 74 71 68 66 65 61 62 69 71 70 71 64 49 44 44 36 31 36 31 21 19 20 19 20 21 21 19 21 26
19 13 26 40 51 57 37 15 14 13 12 13 12 14 19 26 29 28 31 38 45 51 55 58 58 57 56 53 52 58 64 67 73 79 77 73 71 69 64 64 69 71 69 65 55 44 41 37 26 22 26 26 22 20 20 21 21 20 20 23 29 36
19 15 29 48 58 55 33 15 13 12 12 13 12 13 16 20 24 26 32 41 49 53 58 61 61 58 56 53 51 56 65 70 74 80 80 75 73 71 69 68 70 71 67 59 49 39 33 28 22 20 21 22 22 22 23 22 20 20 27 36 41 43
20 16 31 51 59 51 31 15 13 13 12 12 12 11 13 17 22 28 37 46 52 55 60 64 64 60 56 54 53 58 66 73 79 82 79 76 76 73 72 72 73 73 66 58 48 36 26 23 22 20 19 21 22 23 23 22 24 32 42 47 46 43
21 17 31 49 56 47 27 14 12 13 12 12 12 11 13 17 21 30 41 49 52 54 60 66 66 62 57 54 55 55 56 67 83 86 80 80 79 74 74 77 77 71 64 58 47 32 23 22 22 20 21 21 21 21 24 30 40 47 51 50 47 44
22 18 30 45 52 42 21 12 13 12 12 12 11 11 15 19 23 35 45 48 49 53 61 69 70 65 59 54 51 45 44 61 84 90 85 85 81 75 78 79 74 66 61 55 40 26 22 21 21 21 21 20 22 30 39 47 52 51 52 51 47 45
23 18 31 44 49 37 16 12 13 12 13 11 10 13 16 20 30 42 45 44 47 54 64 73 75 72 65 57 54 53 59 76 90 90 87 86 82 79 83 78 68 63 59 48 33 25 22 21 21 21 20 24 35 46 51 54 54 52 51 50 45 43
25 18 33 44 45 31 14 12 13 12 13 11 11 15 16 23 39 46 43 42 48 56 68 79 82 81 78 75 77 81 86 91 93 92 87 85 83 84 84 77 67 62 54 41 30 24 21 20 21 22 26 37 47 49 48 50 54 53 50 47 44 40
26 18 34 44 40 25 12 13 13 12 12 11 13 15 17 31 46 46 41 43 50 59 74 85 87 87 89 90 89 92 93 92 94 94 87 84 86 85 82 76 69 61 49 38 29 24 22 22 24 29 38 46 46 42 41 46 53 53 48 43 40 33
26 20 35 43 33 18 12 13 13 12 12 11 14 15 22 39 47 43 42 45 51 63 77 86 87 86 91 94 91 90 94 96 96 93 88 86 85 83 83 78 69 59 47 38 31 26 25 26 30 38 46 46 40 38 42 49 54 53 44 37 32 25
Wind_Speed
13 13 12 12 11 10 9 9 9 9 9 9 9 9 8 8 9 8 7 6 5 4 4 4 3 3 3 3 2 2 1 1 1 1 1 1 1 1 2 2 2 3 4 5 5 5 5 5 3 4 4 5 5 6 6 7 7 7 8 7 8 8
12 13 13 13 11 10 9 9 9 9 9 8 8 8 8 8 8 9 8 7 6 5 5 5 4 4 5 4 3 3 2 2 2 2 2 2 2 2 2 3 3 4 5 5 6 6 5 3 3 4 4 5 5 5 6 5 5 6 7 7 7 8
12 13 14 13 12 11 10 10 9 9 8 8 8 8 8 7 8 8 8 8 8 7 6 6 6 6 5 5 5 4 4 3 3 3 3 3 2 3 3 3 4 5 5 5 5 6 5 3 3 4 5 5 5 5 5 4 4 4 5 6 7 8
13 14 14 14 14 12 11 11 10 9 8 7 7 7 7 7 8 8 8 9 9 9 8 8 7 6 6 6 6 6 5 5 4 4 4 3 3 4 4 4 5 6 6 6 5 5 4 3 3 4 5 4 4 4 3 3 4 4 4 5 6 7
14 14 15 15 14 12 11 11 10 9 8 7 7 7 6 6 7 8 8 9 10 10 10 9 8 7 7 7 7 7 7 6 6 5 4 4 4 4 5 5 5 6 6 6 6 5 4 4 4 4 5 4 3 4 3 3 3 3 4 4 6 7
15 15 15 16 15 14 12 12 11 10 9 8 7 6 6 6 8 8 8 9 10 11 11 11 9 8 8 8 8 8 8 8 7 6 6 4 4 4 5 5 6 6 6 6 6 6 5 6 6 5 5 4 3 3 3 3 2 3 4 5 6 6
15 15 16 16 17 15 13 13 12 10 9 7 6 5 5 6 7 8 8 9 10 13 13 12 11 9 9 9 9 9 9 9 8 7 7 5 4 5 5 6 6 7 6 6 6 6 6 7 6 6 5 4 3 3 3 3 2 3 5 6 6 6
15 15 16 17 17 16 14 14 13 11 10 7 5 4 5 6 7 8 9 10 10 12 15 13 12 11 10 10 10 10 10 10 9 8 8 6 5 5 6 6 7 7 6 6 6 6 7 6 6 6 5 4 4 3 2 3 3 4 5 5 5 5
14 15 17 18 18 17 15 15 14 12 10 7 6 5 5 6 7 8 9 10 9 10 14 14 13 12 12 11 11 11 11 10 10 9 8 8 6 6 6 7 6 7 6 7 6 6 7 6 6 6 5 5 4 2 1 2 4 4 4 4 5 6
14 15 17 18 19 18 17 15 14 13 10 8 7 7 6 7 7 8 9 10 9 8 11 14 14 14 13 12 12 12 12 10 10 10 9 8 7 7 7 6 6 6 6 7 7 8 7 5 6 6 5 5 3 2 1 1 2 3 3 4 5 5
15 16 17 19 19 19 18 16 16 14 11 10 9 8 7 7 7 7 8 9 8 8 9 12 15 15 14 13 13 14 12 11 11 11 10 9 8 7 7 6 7 7 7 7 7 7 6 5 6 7 6 5 3 3 2 1 1 3 3 4 5 5
15 16 17 19 20 20 19 18 17 14 12 11 10 9 8 7 6 6 7 8 8 7 8 11 14 15 14 13 14 15 12 11 11 11 11 9 8 8 7 7 7 6 6 7 7 6 7 5 6 8 6 5 4 4 4 3 2 3 3 4 5 5
15 16 17 19 21 21 20 19 17 15 13 11 10 9 9 8 6 6 7 8 8 7 7 10 13 15 15 15 16 15 12 12 12 12 11 9 8 8 7 7 6 5 6 7 7 6 7 6 6 8 7 5 5 5 5 4 3 3 4 4 5 5
16 16 18 19 21 22 21 20 18 15 13 12 11 10 9 8 6 6 7 8 8 7 7 9 13 15 16 17 17 14 12 13 13 13 11 9 9 8 7 6 5 5 6 7 7 6 7 6 7 9 7 5 5 5 4 4 3 3 4 4 4 5
19 18 18 20 22 23 22 20 18 15 12 12 11 10 9 8 6 6 8 8 8 8 7 8 12 16 17 19 17 13 13 13 14 13 11 10 9 8 7 7 6 6 6 7 7 6 7 7 8 10 8 5 6 5 4 5 4 4 4 4 4 4
22 20 20 21 22 23 23 21 17 14 13 12 11 10 9 7 5 6 8 8 9 8 7 8 11 16 19 19 16 13 13 14 14 13 10 10 10 8 8 8 8 7 5 6 6 6 7 8 9 9 7 6 6 6 6 5 5 4 4 3 4 4
24 23 23 23 24 24 23 20 17 14 13 12 11 10 9 7 5 6 7 8 9 8 7 8 10 15 18 18 15 14 15 14 14 12 10 11 11 9 9 9 9 7 5 6 6 5 7 9 9 8 7 7 6 6 6 6 5 4 3 4 4 6
27 26 25 25 26 25 23 19 16 14 13 12 10 9 8 7 5 6 7 8 10 10 8 8 10 14 17 17 15 15 15 14 14 12 11 11 11 11 10 9 9 8 6 7 7 6 7 9 8 8 8 7 6 7 7 6 5 5 4 5 6 7
28 27 26 27 27 25 23 19 16 15 13 11 9 9 7 6 5 6 7 8 10 11 10 9 10 13 14 15 16 16 15 14 14 13 12 12 11 11 10 10 9 8 8 8 8 8 8 8 8 8 8 7 7 8 7 6 6 5 5 7 8 8
28 27 26 27 27 25 22 18 16 14 13 10 9 9 7 6 5 6 8 9 10 11 10 9 10 12 13 14 15 15 13 13 14 14 14 12 11 11 11 10 10 9 9 10 10 10 9 9 9 8 8 8 8 8 8 7 7 7 7 8 9 9
27 25 25 25 25 23 21 18 15 13 12 10 9 8 7 6 6 6 8 10 11 11 10 9 11 12 13 14 15 13 11 11 13 14 14 13 11 11 11 12 11 10 10 12 12 12 11 10 10 8 9 10 9 9 9 8 8 8 9 9 9 10
25 23 23 23 22 22 21 18 15 13 12 10 9 8 7 7 6 7 9 10 11 11 9 9 11 13 13 14 14 12 12 11 12 13 13 13 12 11 12 12 12 11 12 13 13 12 12 11 10 9 10 12 11 11 10 9 9 9 9 10 10 11
24 22 21 22 22 22 22 19 15 14 12 10 9 8 8 7 7 7 9 10 11 11 9 10 12 13 14 14 13 13 12 11 11 12 13 13 12 11 12 12 12 12 14 15 13 12 12 11 10 9 11 12 11 11 11 10 9 9 10 10 10 11
25 21 20 21 22 24 23 20 17 15 13 9 9 8 8 8 7 8 10 11 11 11 10 10 12 14 15 15 15 14 13 12 12 12 13 13 12 12 12 13 13 13 14 15 13 11 10 11 10 10 11 13 13 12 11 10 9 10 10 10 10 11
23 20 20 22 24 25 24 21 18 16 12 9 8 9 9 8 8 10 11 11 11 11 11 11 13 15 16 17 16 15 15 13 13 13 13 12 11 11 12 13 13 13 14 14 13 11 10 11 12 11 12 14 14 12 11 10 10 11 11 10 11 12
22 19 21 23 25 26 25 21 17 14 10 9 9 9 9 8 9 10 11 11 11 11 11 12 14 15 17 17 16 16 15 15 14 13 13 12 12 12 12 12 13 14 14 13 12 12 11 12 12 12 13 14 14 12 11 11 11 11 11 11 12 12
22 20 22 24 25 27 26 21 16 14 11 9 9 9 9 8 8 10 11 12 12 12 12 13 15 16 17 18 18 17 16 15 15 15 13 12 13 14 13 12 13 14 13 13 13 13 13 12 12 13 13 14 13 12 12 12 11 11 12 13 12 12
22 21 23 24 26 28 26 20 17 14 11 9 9 9 9 8 9 11 12 14 14 13 13 14 15 16 17 19 19 18 17 16 17 17 15 13 14 15 15 14 14 15 14 14 15 14 13 12 12 13 13 13 13 12 11 11 11 11 12 12 13 14
23 22 24 25 28 29 25 21 18 15 11 10 10 9 9 9 10 12 13 15 15 15 15 15 16 17 18 19 20 20 19 18 18 19 16 14 14 16 17 16 16 16 16 15 14 13 12 13 14 13 13 13 12 11 11 11 11 10 10 11 13 15
25 24 25 26 29 29 25 22 18 14 11 10 9 9 10 10 11 13 14 15 16 16 16 16 16 17 18 19 21 21 20 18 19 20 18 15 16 18 19 18 18 18 16 15 13 12 12 14 14 13 13 13 12 11 11 11 10 9 10 11 13 15
26 26 26 28 30 29 25 22 18 14 12 10 9 9 10 11 12 14 15 16 16 17 17 17 17 17 18 20 21 22 21 19 19 20 20 18 19 20 20 19 19 19 17 15 13 12 12 13 13 13 12 12 12 11 10 10 10 9 10 11 12 14
28 27 27 29 30 29 26 22 18 14 11 9 9 9 10 12 13 14 15 16 16 17 17 17 17 18 20 21 22 23 22 21 21 22 22 21 21 21 20 19 19 19 18 16 14 12 12 12 12 12 12 11 10 9 9 9 10 10 11 11 12 14
28 28 28 29 30 29 26 21 17 14 11 9 9 10 11 13 14 14 15 15 16 17 17 16 16 18 20 21 22 23 23 23 23 23 24 23 23 22 20 18 18 19 18 17 14 12 11 11 12 12 11 10 8 7 7 8 10 12 12 11 12 13
28 29 28 29 31 29 25 21 16 13 11 9 9 11 12 14 14 14 15 15 16 17 16 15 15 18 20 21 22 22 23 24 22 22 24 23 23 23 20 19 19 19 18 16 13 12 11 11 11 11 10 8 7 7 7 8 11 12 12 12 13 13
29 29 28 30 31 29 25 20 15 12 10 10 11 12 13 14 14 14 14 15 16 17 15 14 16 18 20 21 22 22 21 20 19 20 22 21 22 22 20 20 20 19 17 14 12 12 11 11 11 10 9 7 6 6 6 8 10 12 13 14 14 14
29 30 29 30 30 27 23 19 15 12 10 11 12 13 14 14 14 14 15 15 16 16 14 14 16 17 20 23 23 21 18 18 19 20 21 22 22 22 21 21 20 18 16 13 12 12 11 11 11 9 8 6 6 6 7 8 9 12 13 14 14 14
30 30 29 30 30 26 22 18 14 12 11 12 12 13 14 14 14 14 14 15 16 14 13 14 15 16 18 21 20 18 17 17 19 21 23 24 23 22 21 20 19 17 14 13 12 12 11 11 10 9 7 6 6 7 8 9 10 11 13 14 14 13
Wind_Direction
233 237 238 237 237 241 250 256 261 266 273 280 285 289 289 288 285 279 272 264 257 252 248 246 236 236 244 252 255 255 269 264 239 225 205 191 193 230 260 292 310 311 310 314 314 313 318 326 315 303 310 308 311 320 326 345 2 358 348 346 343 343
236 239 241 240 240 241 249 256 257 263 269 277 282 286 286 284 283 278 269 260 254 249 244 246 239 239 243 251 254 247 253 256 253 249 239 231 230 253 273 291 298 302 306 306 300 300 309 299 270 291 304 302 308 319 328 347 2 353 341 339 342 351
238 238 243 241 239 239 246 253 255 260 266 275 280 281 282 283 284 282 273 261 253 247 242 242 237 239 244 246 246 246 249 250 251 248 246 247 256 270 278 287 292 303 305 301 297 296 297 257 250 295 297 298 312 320 333 348 354 347 335 333 343 357
241 238 241 240 238 237 243 250 253 259 263 270 276 279 285 288 293 291 281 266 254 245 239 238 237 240 241 241 244 247 251 253 254 250 251 254 262 272 281 296 305 309 308 303 291 276 274 245 246 283 282 287 304 312 331 348 348 340 328 332 347 2
246 241 240 238 238 236 240 248 251 256 259 266 272 282 295 301 304 300 290 275 259 246 239 238 238 238 237 240 244 245 250 254 258 256 254 256 265 279 288 299 302 301 301 295 280 264 261 252 252 267 274 277 287 302 321 341 345 334 331 348 358 8
249 245 240 236 237 234 237 246 250 253 255 263 273 290 308 311 311 308 300 283 262 247 240 238 236 235 237 240 242 243 248 253 259 258 254 259 265 274 278 281 287 293 295 290 280 265 249 245 250 254 265 274 276 286 304 325 342 335 343 357 359 3
252 249 240 234 236 233 236 244 248 250 252 262 276 298 311 310 311 311 306 291 266 247 242 238 234 235 238 240 241 242 247 253 258 257 257 258 255 262 268 273 282 294 296 288 277 265 249 245 245 244 254 266 258 269 292 314 349 359 357 357 348 348
255 251 241 235 236 232 234 243 247 249 250 261 275 293 301 304 309 308 305 298 279 252 244 240 234 235 237 240 242 243 248 254 257 257 259 257 255 267 269 270 283 296 293 280 272 258 249 248 248 249 259 271 272 277 292 319 351 4 4 353 333 336
258 254 245 239 236 232 234 242 246 246 248 258 269 281 293 303 309 308 303 302 296 265 246 239 236 237 237 239 242 245 248 252 256 257 259 260 263 268 267 276 291 295 281 268 263 249 245 250 259 264 274 289 296 298 304 335 347 358 5 341 322 331
256 255 250 244 237 234 234 240 243 243 246 254 264 276 290 306 310 310 307 305 305 282 252 237 234 238 238 240 244 247 248 250 254 256 257 259 266 270 271 278 278 273 262 254 254 254 260 270 276 286 303 311 313 313 322 345 336 345 353 328 319 328
251 253 253 248 242 237 235 239 242 242 245 252 264 276 290 306 310 309 306 303 297 280 256 236 232 238 240 240 244 247 248 250 252 256 259 257 262 267 265 259 254 255 250 248 253 262 273 275 281 298 314 319 328 324 324 22 347 337 337 317 312 314
248 251 252 249 246 242 238 239 241 241 242 252 265 277 290 300 306 305 296 293 291 278 257 240 236 238 240 239 241 246 248 251 252 254 257 256 257 260 259 258 258 260 258 253 254 261 269 275 285 297 308 319 328 324 328 5 1 331 323 313 301 303
250 250 251 250 247 243 240 239 241 239 241 253 265 276 288 295 297 299 293 290 296 293 266 248 242 239 237 236 239 245 247 249 249 250 253 255 259 264 267 269 267 266 268 262 257 260 269 280 284 286 297 314 317 322 329 334 338 319 309 299 291 304
253 253 252 250 249 245 241 240 239 239 243 253 264 276 284 291 297 297 298 299 306 310 284 255 245 239 235 235 238 243 246 247 248 250 255 258 262 269 273 272 268 266 265 261 260 262 266 271 270 274 284 297 302 315 317 302 300 291 283 282 293 313
255 255 253 251 250 246 242 239 239 238 243 253 263 276 282 288 301 301 302 307 311 313 296 263 245 240 238 238 240 242 246 249 252 255 257 259 261 266 268 263 259 259 255 253 258 261 262 262 258 267 280 286 287 293 286 281 280 271 272 290 305 311
257 255 253 251 250 247 242 237 236 236 241 253 263 273 284 292 301 303 305 307 308 307 295 271 248 242 242 243 242 241 245 249 253 257 255 255 257 257 258 255 253 255 250 243 252 261 263 262 259 265 276 277 278 281 278 276 273 270 275 293 298 290
259 255 252 249 248 247 243 234 230 233 240 250 260 270 284 297 302 303 304 303 303 304 294 276 256 247 246 246 243 239 244 248 252 256 253 253 257 254 250 250 252 252 240 229 235 250 260 265 268 269 268 271 276 275 272 272 273 279 282 279 277 275
263 256 250 247 246 244 239 230 226 231 239 247 259 270 283 297 304 301 299 299 301 306 305 289 267 253 249 248 243 240 244 248 252 254 250 252 258 256 250 250 252 249 233 219 220 233 253 267 275 272 265 266 269 265 263 260 262 272 274 268 267 272
268 259 249 244 242 238 233 226 223 229 240 248 256 268 282 296 304 300 295 297 303 314 316 298 271 255 251 248 244 245 249 251 252 249 245 245 252 255 254 253 250 245 232 220 225 236 246 261 271 273 267 262 259 259 260 254 253 257 259 262 265 272
270 262 252 245 240 234 229 225 224 229 239 245 253 264 282 299 307 300 291 296 309 319 316 293 268 256 251 247 247 250 251 250 249 248 245 242 244 249 252 253 248 244 237 225 229 238 243 255 265 273 268 260 254 253 254 254 257 259 259 262 265 273
269 264 256 249 242 232 228 226 225 229 236 241 250 263 284 303 308 295 288 299 312 316 308 286 265 255 249 247 248 247 241 241 244 249 250 245 243 245 247 249 246 243 239 229 229 240 247 252 258 266 263 256 252 250 248 244 247 254 259 264 269 277
269 267 258 250 240 229 228 225 219 226 234 238 252 269 288 302 303 292 291 301 309 310 302 280 261 254 250 248 249 244 237 236 238 247 252 249 246 246 245 246 244 240 235 230 233 243 245 244 249 255 253 250 249 252 251 242 239 245 255 264 271 276
271 267 257 247 236 227 225 219 214 224 232 240 257 273 287 294 294 291 293 300 306 307 297 274 260 254 248 246 245 242 239 234 232 239 247 249 247 247 246 244 245 243 234 229 232 239 237 237 246 248 246 247 246 249 250 244 241 248 257 264 270 277
271 263 252 242 231 224 221 213 212 224 231 243 260 272 283 285 285 289 295 301 304 303 293 273 261 254 247 243 241 239 237 234 230 233 241 246 248 249 246 244 246 243 232 227 230 233 236 242 250 249 244 243 242 244 246 244 247 255 259 262 271 284
267 256 243 234 226 222 218 210 213 224 232 248 264 272 278 278 282 291 298 301 300 297 289 272 262 256 249 244 242 240 240 238 232 232 238 243 247 248 244 247 250 245 234 229 233 237 243 247 249 248 242 239 243 248 250 250 254 258 260 265 277 289
262 249 235 228 222 220 216 211 215 226 236 253 268 273 275 277 282 290 295 296 296 293 284 272 264 259 253 247 242 242 244 242 235 232 236 238 240 243 247 254 252 242 231 224 227 236 244 246 245 246 242 239 243 248 250 253 258 265 271 277 285 292
258 241 229 225 221 218 214 211 217 227 236 255 270 273 270 273 278 284 292 292 291 289 281 274 267 260 256 250 243 243 243 242 235 231 235 237 239 241 245 252 248 236 223 216 219 229 239 243 244 245 244 239 238 241 247 255 263 272 279 286 293 297
254 234 225 223 220 216 213 212 218 226 236 255 266 266 261 263 273 281 289 290 288 286 279 274 269 261 256 251 247 245 244 243 236 231 236 243 247 244 240 245 244 233 223 220 222 226 235 244 245 242 239 235 234 237 246 255 263 271 281 290 296 299
249 229 223 222 218 215 211 212 220 226 237 254 263 263 255 256 269 279 285 287 286 284 279 275 269 263 258 253 249 247 247 246 237 231 232 242 252 247 240 241 236 228 226 224 224 224 230 241 245 239 231 230 234 239 246 255 263 273 284 291 295 298
246 229 223 220 216 213 210 214 222 227 238 255 267 264 254 255 266 276 281 283 283 281 279 274 269 266 261 254 250 248 249 247 237 230 230 241 251 245 238 235 227 223 226 224 223 226 228 235 241 237 229 229 234 240 248 258 268 280 287 290 293 296
244 229 222 218 215 212 211 216 223 229 240 257 270 263 252 253 263 272 276 279 281 280 278 271 268 266 261 255 251 249 250 247 236 231 234 242 244 236 231 230 224 223 230 229 229 232 230 231 235 234 228 226 230 237 247 259 270 279 284 285 287 288
240 226 220 216 214 212 211 217 224 231 246 262 269 257 246 251 260 267 272 277 280 280 276 269 264 264 262 258 253 252 252 247 239 235 234 235 230 225 227 228 224 225 231 234 234 234 230 226 226 226 224 221 224 233 244 258 269 274 276 278 278 282
235 223 219 215 214 212 212 219 225 233 250 265 263 249 244 252 260 265 273 280 282 280 273 266 263 263 263 260 257 257 255 251 248 238 230 229 223 220 222 223 222 224 228 230 231 231 227 221 218 219 220 216 215 225 241 257 269 272 273 273 276 282
231 221 216 213 212 212 214 220 225 235 252 261 253 244 246 255 261 268 278 283 282 278 272 266 261 258 260 259 258 258 256 256 252 235 227 228 220 215 216 217 219 222 223 226 228 227 225 217 215 216 217 215 213 223 245 259 266 273 276 276 278 284
230 219 213 210 210 212 216 220 224 238 252 253 244 242 250 258 263 272 281 284 281 279 275 265 257 256 257 256 253 253 254 257 250 232 225 219 210 210 212 214 217 219 220 224 224 223 220 214 212 214 214 217 226 241 259 266 267 273 278 280 283 287
230 218 210 209 210 212 217 219 225 240 249 244 239 243 254 260 265 275 282 284 282 280 273 260 256 258 258 257 254 248 249 253 245 231 219 207 204 208 209 211 216 217 219 222 221 220 216 212 212 214 217 228 245 265 277 278 274 273 275 279 285 290
227 215 208 208 210 211 215 219 228 242 245 239 238 244 252 257 265 276 281 283 282 279 270 260 259 260 261 264 262 254 254 250 236 223 212 207 210 211 207 210 214 215 218 217 216 217 213 214 216 217 227 243 263 281 286 283 277 272 272 277 285 289